Time,TemperatureF,DewpointF,PressureIn,WindDirection,WindDirectionDegrees,WindSpeedMPH,WindSpeedGustMPH,Humidity,HourlyPrecipIn,Conditions,Clouds,dailyrainin,SoftwareType,DateUTC
2013-01-12 00:01:00,29.9,26.5,30.12,NE,45,0.2,1.6,87,0.00,,,0.00,WUHU216HW,2013-01-12 08:01:00,
2013-01-12 00:06:00,30.2,27.2,30.12,ENE,68,0.0,1.1,88,0.00,,,0.00,WUHU216HW,2013-01-12 08:06:00,
2013-01-12 00:11:00,30.6,27.2,30.12,ENE,68,0.2,0.9,87,0.00,,,0.00,WUHU216HW,2013-01-12 08:11:00,
2013-01-12 00:16:00,30.6,26.9,30.12,ENE,68,0.0,0.9,86,0.00,,,0.00,WUHU216HW,2013-01-12 08:16:00,
2013-01-12 00:21:00,30.6,26.6,30.12,ENE,68,0.0,0.4,85,0.00,,,0.00,WUHU216HW,2013-01-12 08:21:00,
2013-01-12 00:26:00,30.8,26.8,30.12,NNW,338,0.0,0.0,85,0.00,,,0.00,WUHU216HW,2013-01-12 08:26:00,
2013-01-12 00:31:00,30.8,26.6,30.12,NNW,338,0.0,0.0,84,0.00,,,0.00,WUHU216HW,2013-01-12 08:31:00,
2013-01-12 00:36:00,31.0,26.7,30.12,NNW,338,0.0,0.0,84,0.00,,,0.00,WUHU216HW,2013-01-12 08:36:00,
2013-01-12 00:41:00,31.0,26.5,30.12,North,0,0.0,0.0,83,0.00,,,0.00,WUHU216HW,2013-01-12 08:41:00,
2013-01-12 00:46:00,31.0,26.5,30.13,North,0,0.0,0.0,83,0.00,,,0.00,WUHU216HW,2013-01-12 08:46:00,
2013-01-12 00:51:00,31.0,26.5,30.13,North,0,0.0,0.0,83,0.00,,,0.00,WUHU216HW,2013-01-12 08:51:00,
2013-01-12 00:56:00,30.8,26.3,30.13,NNE,23,0.4,1.1,83,0.00,,,0.00,WUHU216HW,2013-01-12 08:56:00,
2013-01-12 01:01:00,30.6,26.4,30.13,NNE,23,0.4,1.1,84,0.00,,,0.00,WUHU216HW,2013-01-12 09:01:00,
2013-01-12 01:06:00,30.6,26.4,30.13,West,270,0.0,1.1,84,0.00,,,0.00,WUHU216HW,2013-01-12 09:06:00,
2013-01-12 01:11:00,30.6,26.4,30.13,WNW,293,0.0,0.4,84,0.00,,,0.00,WUHU216HW,2013-01-12 09:11:00,
2013-01-12 01:16:00,30.6,26.4,30.13,NNE,23,1.1,1.1,84,0.00,,,0.00,WUHU216HW,2013-01-12 09:16:00,
2013-01-12 01:21:00,30.6,26.4,30.14,North,0,0.4,1.1,84,0.00,,,0.00,WUHU216HW,2013-01-12 09:21:00,
2013-01-12 01:26:00,30.4,26.5,30.14,WSW,248,1.1,1.1,85,0.00,,,0.00,WUHU216HW,2013-01-12 09:26:00,
2013-01-12 01:31:00,30.4,26.5,30.14,WNW,293,0.0,1.1,85,0.00,,,0.00,WUHU216HW,2013-01-12 09:31:00,
2013-01-12 01:36:00,30.4,26.2,30.14,NE,45,0.7,0.9,84,0.00,,,0.00,WUHU216HW,2013-01-12 09:36:00,
2013-01-12 01:41:00,30.2,26.0,30.14,NNE,23,0.4,1.1,84,0.00,,,0.00,WUHU216HW,2013-01-12 09:41:00,
2013-01-12 01:46:00,30.1,25.8,30.14,WNW,293,0.0,1.1,84,0.00,,,0.00,WUHU216HW,2013-01-12 09:46:00,
2013-01-12 01:51:00,30.1,25.8,30.14,WNW,293,0.0,0.9,84,0.00,,,0.00,WUHU216HW,2013-01-12 09:51:00,
2013-01-12 01:56:00,29.9,25.7,30.14,NNW,338,0.0,0.4,84,0.00,,,0.00,WUHU216HW,2013-01-12 09:56:00,
2013-01-12 02:01:00,29.9,25.7,30.14,NNW,338,0.0,0.0,84,0.00,,,0.00,WUHU216HW,2013-01-12 10:01:00,
2013-01-12 02:06:00,29.7,25.5,30.14,NNW,338,0.0,0.0,84,0.00,,,0.00,WUHU216HW,2013-01-12 10:06:00,
2013-01-12 02:11:00,29.5,25.0,30.14,North,0,0.0,0.2,83,0.00,,,0.00,WUHU216HW,2013-01-12 10:11:00,
2013-01-12 02:16:00,29.5,25.0,30.14,North,0,0.0,0.2,83,0.00,,,0.00,WUHU216HW,2013-01-12 10:16:00,
2013-01-12 02:21:00,29.3,24.9,30.14,North,0,0.0,0.0,83,0.00,,,0.00,WUHU216HW,2013-01-12 10:21:00,
2013-01-12 02:26:00,29.3,24.9,30.14,North,0,0.0,0.0,83,0.00,,,0.00,WUHU216HW,2013-01-12 10:26:00,
2013-01-12 02:31:00,29.3,24.9,30.14,North,0,0.0,0.0,83,0.00,,,0.00,WUHU216HW,2013-01-12 10:31:00,
2013-01-12 02:36:00,29.2,24.7,30.14,North,0,0.0,0.0,83,0.00,,,0.00,WUHU216HW,2013-01-12 10:36:00,
2013-01-12 02:41:00,29.0,24.5,30.14,NE,45,0.0,0.0,83,0.00,,,0.00,WUHU216HW,2013-01-12 10:41:00,
2013-01-12 02:46:00,29.0,24.8,30.14,NE,45,0.0,0.0,84,0.00,,,0.00,WUHU216HW,2013-01-12 10:46:00,
2013-01-12 02:51:00,29.2,24.9,30.13,North,0,0.0,0.4,84,0.00,,,0.00,WUHU216HW,2013-01-12 10:51:00,
2013-01-12 02:56:00,29.2,25.2,30.13,North,0,0.0,0.4,85,0.00,,,0.00,WUHU216HW,2013-01-12 10:56:00,
2013-01-12 03:01:00,29.2,25.2,30.13,ENE,68,0.4,0.4,85,0.00,,,0.00,WUHU216HW,2013-01-12 11:01:00,
2013-01-12 03:06:00,29.0,25.0,30.13,NE,45,0.4,1.6,85,0.00,,,0.00,WUHU216HW,2013-01-12 11:06:00,
2013-01-12 03:11:00,29.0,25.0,30.13,NE,45,0.0,1.6,85,0.00,,,0.00,WUHU216HW,2013-01-12 11:11:00,
2013-01-12 03:16:00,29.0,25.0,30.13,NE,45,0.0,0.0,85,0.00,,,0.00,WUHU216HW,2013-01-12 11:16:00,
2013-01-12 03:21:00,29.2,25.2,30.13,NE,45,0.4,0.4,85,0.00,,,0.00,WUHU216HW,2013-01-12 11:21:00,
2013-01-12 03:26:00,29.2,25.2,30.13,North,0,0.2,1.1,85,0.00,,,0.00,WUHU216HW,2013-01-12 11:26:00,
2013-01-12 03:31:00,29.0,25.3,30.13,NE,45,0.2,1.1,86,0.00,,,0.00,WUHU216HW,2013-01-12 11:31:00,
2013-01-12 03:36:00,29.0,25.3,30.13,NE,45,0.0,0.7,86,0.01,,,0.01,WUHU216HW,2013-01-12 11:36:00,
2013-01-12 03:41:00,29.2,25.5,30.13,NE,45,0.0,0.2,86,0.01,,,0.01,WUHU216HW,2013-01-12 11:41:00,
2013-01-12 03:46:00,29.2,25.5,30.13,NE,45,0.0,0.0,86,0.01,,,0.01,WUHU216HW,2013-01-12 11:46:00,
2013-01-12 03:51:00,29.2,25.2,30.13,NE,45,0.0,0.0,85,0.01,,,0.01,WUHU216HW,2013-01-12 11:51:00,
2013-01-12 03:56:00,29.2,25.2,30.13,NW,315,0.2,0.2,85,0.01,,,0.01,WUHU216HW,2013-01-12 11:56:00,
2013-01-12 04:01:00,29.0,25.0,30.14,West,270,0.2,0.4,85,0.01,,,0.01,WUHU216HW,2013-01-12 12:01:00,
2013-01-12 04:06:00,28.8,24.8,30.14,West,270,0.0,0.4,85,0.01,,,0.01,WUHU216HW,2013-01-12 12:06:00,
2013-01-12 04:11:00,29.0,25.0,30.14,NW,315,0.7,0.7,85,0.01,,,0.01,WUHU216HW,2013-01-12 12:11:00,
2013-01-12 04:17:00,28.8,25.1,30.14,NW,315,0.0,0.7,86,0.01,,,0.01,WUHU216HW,2013-01-12 12:17:00,
2013-01-12 04:22:00,28.8,24.8,30.14,NW,315,0.0,0.7,85,0.01,,,0.01,WUHU216HW,2013-01-12 12:22:00,
2013-01-12 04:27:00,28.8,24.8,30.14,West,270,0.4,1.1,85,0.01,,,0.01,WUHU216HW,2013-01-12 12:27:00,
2013-01-12 04:32:00,29.0,25.0,30.14,NW,315,0.7,1.1,85,0.01,,,0.01,WUHU216HW,2013-01-12 12:32:00,
2013-01-12 04:37:00,28.8,24.8,30.14,North,0,0.0,0.7,85,0.00,,,0.01,WUHU216HW,2013-01-12 12:37:00,
2013-01-12 04:42:00,28.8,25.1,30.14,North,0,0.0,0.7,86,0.00,,,0.01,WUHU216HW,2013-01-12 12:42:00,
2013-01-12 04:47:00,28.8,25.1,30.14,NNW,338,0.0,0.0,86,0.00,,,0.01,WUHU216HW,2013-01-12 12:47:00,
2013-01-12 04:52:00,28.4,24.8,30.14,SSE,158,0.7,0.7,86,0.00,,,0.01,WUHU216HW,2013-01-12 12:52:00,
2013-01-12 04:57:00,28.3,24.3,30.14,SSE,158,0.0,0.7,85,0.00,,,0.01,WUHU216HW,2013-01-12 12:57:00,
2013-01-12 05:02:00,28.3,24.3,30.14,SE,135,0.0,0.7,85,0.00,,,0.01,WUHU216HW,2013-01-12 13:02:00,
2013-01-12 05:07:00,28.3,24.3,30.14,ESE,113,0.0,0.0,85,0.00,,,0.01,WUHU216HW,2013-01-12 13:07:00,
2013-01-12 05:12:00,28.1,23.9,30.14,ESE,113,0.0,0.0,84,0.00,,,0.01,WUHU216HW,2013-01-12 13:12:00,
2013-01-12 05:17:00,28.1,23.9,30.14,SSE,158,0.0,0.0,84,0.00,,,0.01,WUHU216HW,2013-01-12 13:17:00,
2013-01-12 05:22:00,28.3,24.3,30.14,ESE,113,0.0,0.4,85,0.00,,,0.01,WUHU216HW,2013-01-12 13:22:00,
2013-01-12 05:27:00,28.3,24.3,30.14,SE,135,0.4,0.4,85,0.00,,,0.01,WUHU216HW,2013-01-12 13:27:00,
2013-01-12 05:32:00,28.3,24.3,30.14,East,90,0.2,0.7,85,0.00,,,0.01,WUHU216HW,2013-01-12 13:32:00,
2013-01-12 05:37:00,27.9,23.7,30.15,ESE,113,1.1,1.1,84,0.00,,,0.01,WUHU216HW,2013-01-12 13:37:00,
2013-01-12 05:42:00,27.5,23.6,30.15,South,180,0.0,1.1,85,0.00,,,0.01,WUHU216HW,2013-01-12 13:42:00,
2013-01-12 05:47:00,27.4,23.4,30.15,East,90,0.2,1.1,85,0.00,,,0.01,WUHU216HW,2013-01-12 13:47:00,
2013-01-12 05:52:00,27.4,23.4,30.15,East,90,0.0,0.7,85,0.00,,,0.01,WUHU216HW,2013-01-12 13:52:00,
2013-01-12 05:57:00,27.4,23.4,30.16,SW,225,0.0,0.2,85,0.00,,,0.01,WUHU216HW,2013-01-12 13:57:00,
2013-01-12 06:02:00,27.5,23.6,30.16,SSW,203,0.0,0.9,85,0.00,,,0.01,WUHU216HW,2013-01-12 14:02:00,
2013-01-12 06:07:00,27.5,23.6,30.16,South,180,0.0,0.9,85,0.00,,,0.01,WUHU216HW,2013-01-12 14:07:00,
2013-01-12 06:12:00,27.7,23.8,30.16,SSW,203,0.0,0.7,85,0.00,,,0.01,WUHU216HW,2013-01-12 14:12:00,
2013-01-12 06:17:00,27.7,23.8,30.16,SSW,203,0.0,0.2,85,0.00,,,0.01,WUHU216HW,2013-01-12 14:17:00,
2013-01-12 06:22:00,27.7,23.5,30.17,SE,135,0.0,0.0,84,0.00,,,0.01,WUHU216HW,2013-01-12 14:22:00,
2013-01-12 06:27:00,27.5,23.3,30.16,SE,135,0.0,0.2,84,0.00,,,0.01,WUHU216HW,2013-01-12 14:27:00,
2013-01-12 06:32:00,27.5,23.3,30.17,SSE,158,0.0,1.1,84,0.00,,,0.01,WUHU216HW,2013-01-12 14:32:00,
2013-01-12 06:37:00,27.5,23.6,30.17,SSE,158,0.2,1.1,85,0.00,,,0.01,WUHU216HW,2013-01-12 14:37:00,
2013-01-12 06:42:00,27.4,23.4,30.17,ENE,68,0.2,0.7,85,0.00,,,0.01,WUHU216HW,2013-01-12 14:42:00,
2013-01-12 06:47:00,26.6,22.7,30.17,NNE,23,0.7,1.1,85,0.00,,,0.01,WUHU216HW,2013-01-12 14:47:00,
2013-01-12 06:52:00,26.6,22.7,30.17,NNE,23,0.0,1.1,85,0.00,,,0.01,WUHU216HW,2013-01-12 14:52:00,
2013-01-12 06:57:00,26.6,22.7,30.17,WNW,293,0.0,0.7,85,0.00,,,0.01,WUHU216HW,2013-01-12 14:57:00,
2013-01-12 07:02:00,26.8,22.9,30.17,NE,45,0.7,0.7,85,0.00,,,0.01,WUHU216HW,2013-01-12 15:02:00,
2013-01-12 07:07:00,26.5,22.8,30.17,North,0,0.7,1.1,86,0.00,,,0.01,WUHU216HW,2013-01-12 15:07:00,
2013-01-12 07:12:00,26.3,22.6,30.18,NNE,23,0.4,2.0,86,0.00,,,0.01,WUHU216HW,2013-01-12 15:12:00,
2013-01-12 07:17:00,26.5,22.8,30.18,NNE,23,1.3,2.0,86,0.00,,,0.01,WUHU216HW,2013-01-12 15:17:00,
2013-01-12 07:22:00,26.5,22.8,30.18,NNE,23,1.8,1.8,86,0.00,,,0.01,WUHU216HW,2013-01-12 15:22:00,
2013-01-12 07:27:00,26.6,23.0,30.19,NNE,23,1.3,1.8,86,0.00,,,0.01,WUHU216HW,2013-01-12 15:27:00,
2013-01-12 07:32:00,27.0,23.6,30.19,NW,315,0.0,1.8,87,0.00,,,0.01,WUHU216HW,2013-01-12 15:32:00,
2013-01-12 07:37:00,27.4,24.6,30.19,NNE,23,0.7,1.3,89,0.00,,,0.01,WUHU216HW,2013-01-12 15:37:00,
2013-01-12 07:42:00,27.5,24.5,30.19,North,0,1.3,1.8,88,0.00,,,0.01,WUHU216HW,2013-01-12 15:42:00,
2013-01-12 07:47:00,27.7,24.7,30.19,NNE,23,0.9,2.0,88,0.00,,,0.01,WUHU216HW,2013-01-12 15:47:00,
2013-01-12 07:52:00,27.9,24.9,30.20,NNE,23,0.4,2.0,88,0.00,,,0.01,WUHU216HW,2013-01-12 15:52:00,
2013-01-12 07:57:00,27.7,24.7,30.20,NNE,23,0.9,2.0,88,0.00,,,0.01,WUHU216HW,2013-01-12 15:57:00,
2013-01-12 08:02:00,27.7,24.7,30.20,NE,45,0.0,1.1,88,0.00,,,0.01,WUHU216HW,2013-01-12 16:02:00,
2013-01-12 08:07:00,28.1,25.0,30.20,ENE,68,0.7,1.1,88,0.00,,,0.01,WUHU216HW,2013-01-12 16:07:00,
2013-01-12 08:12:00,28.4,25.7,30.20,NE,45,0.0,1.1,89,0.00,,,0.01,WUHU216HW,2013-01-12 16:12:00,
2013-01-12 08:17:00,28.8,26.0,30.20,NW,315,0.7,1.1,89,0.00,,,0.01,WUHU216HW,2013-01-12 16:17:00,
2013-01-12 08:22:00,29.2,26.1,30.20,NNW,338,0.0,0.9,88,0.00,,,0.01,WUHU216HW,2013-01-12 16:22:00,
2013-01-12 08:27:00,29.7,26.7,30.20,NNE,23,0.7,1.6,88,0.00,,,0.01,WUHU216HW,2013-01-12 16:27:00,
2013-01-12 08:32:00,30.2,27.5,30.21,NNE,23,1.1,1.6,89,0.00,,,0.01,WUHU216HW,2013-01-12 16:32:00,
2013-01-12 08:37:00,31.0,28.2,30.21,North,0,0.0,1.8,89,0.00,,,0.01,WUHU216HW,2013-01-12 16:37:00,
2013-01-12 08:42:00,31.3,28.5,30.21,SSW,203,1.6,1.8,89,0.00,,,0.01,WUHU216HW,2013-01-12 16:42:00,
2013-01-12 08:47:00,31.9,29.1,30.21,SSE,158,0.4,1.8,89,0.00,,,0.01,WUHU216HW,2013-01-12 16:47:00,
2013-01-12 08:52:00,32.4,29.5,30.21,SSW,203,2.5,2.5,89,0.00,,,0.01,WUHU216HW,2013-01-12 16:52:00,
2013-01-12 08:57:00,32.8,29.6,30.21,South,180,1.1,2.5,88,0.00,,,0.01,WUHU216HW,2013-01-12 16:57:00,
2013-01-12 09:02:00,33.3,30.1,30.21,SSE,158,1.1,2.2,88,0.00,,,0.01,WUHU216HW,2013-01-12 17:02:00,
2013-01-12 09:07:00,33.8,30.6,30.21,SSE,158,1.1,1.8,88,0.00,,,0.01,WUHU216HW,2013-01-12 17:07:00,
2013-01-12 09:12:00,34.2,30.3,30.22,SSE,158,0.4,2.0,86,0.00,,,0.01,WUHU216HW,2013-01-12 17:12:00,
2013-01-12 09:17:00,34.9,31.1,30.22,SSE,158,1.6,2.0,86,0.00,,,0.01,WUHU216HW,2013-01-12 17:17:00,
2013-01-12 09:22:00,35.5,31.3,30.22,SE,135,1.3,2.0,85,0.00,,,0.01,WUHU216HW,2013-01-12 17:22:00,
2013-01-12 09:27:00,35.8,31.4,30.22,ESE,113,1.1,2.7,84,0.00,,,0.01,WUHU216HW,2013-01-12 17:27:00,
2013-01-12 09:32:00,36.4,32.0,30.22,SE,135,4.3,4.5,84,0.00,,,0.01,WUHU216HW,2013-01-12 17:32:00,
2013-01-12 09:37:00,36.9,32.5,30.22,ESE,113,3.4,4.5,84,0.00,,,0.01,WUHU216HW,2013-01-12 17:37:00,
2013-01-12 09:42:00,37.4,33.0,30.22,SE,135,3.1,4.3,84,0.00,,,0.01,WUHU216HW,2013-01-12 17:42:00,
2013-01-12 09:47:00,38.0,33.3,30.22,SSE,158,2.9,4.0,83,0.00,,,0.01,WUHU216HW,2013-01-12 17:47:00,
2013-01-12 09:52:00,38.5,33.5,30.22,ESE,113,1.6,3.8,82,0.00,,,0.01,WUHU216HW,2013-01-12 17:52:00,
2013-01-12 09:57:00,39.2,33.9,30.22,SSE,158,3.6,4.0,81,0.00,,,0.01,WUHU216HW,2013-01-12 17:57:00,
2013-01-12 10:02:00,39.6,34.0,30.22,South,180,1.6,4.0,80,0.00,,,0.01,WUHU216HW,2013-01-12 18:02:00,
2013-01-12 10:07:00,40.1,34.7,30.22,SSE,158,0.4,4.0,81,0.00,,,0.01,WUHU216HW,2013-01-12 18:07:00,
2013-01-12 10:12:00,40.7,35.3,30.22,SSE,158,4.9,4.9,81,0.00,,,0.01,WUHU216HW,2013-01-12 18:12:00,
2013-01-12 10:17:00,41.2,35.7,30.22,South,180,3.8,4.9,81,0.00,,,0.01,WUHU216HW,2013-01-12 18:17:00,
2013-01-12 10:22:00,41.8,35.6,30.21,SE,135,1.1,4.9,79,0.00,,,0.01,WUHU216HW,2013-01-12 18:22:00,
2013-01-12 10:27:00,42.1,35.4,30.21,ESE,113,1.8,3.8,77,0.00,,,0.01,WUHU216HW,2013-01-12 18:27:00,
2013-01-12 10:32:00,42.3,35.6,30.21,SE,135,2.7,4.9,77,0.00,,,0.01,WUHU216HW,2013-01-12 18:32:00,
2013-01-12 10:37:00,42.8,36.1,30.21,SE,135,2.5,5.6,77,0.00,,,0.01,WUHU216HW,2013-01-12 18:37:00,
2013-01-12 10:42:00,43.2,36.5,30.21,SSW,203,3.4,5.6,77,0.00,,,0.01,WUHU216HW,2013-01-12 18:42:00,
2013-01-12 10:47:00,43.4,36.3,30.20,SSE,158,5.1,5.6,76,0.00,,,0.01,WUHU216HW,2013-01-12 18:47:00,
2013-01-12 10:52:00,43.9,36.5,30.20,SE,135,1.1,5.4,75,0.00,,,0.01,WUHU216HW,2013-01-12 18:52:00,
2013-01-12 10:57:00,44.1,36.4,30.20,SSE,158,4.7,6.5,74,0.00,,,0.01,WUHU216HW,2013-01-12 18:57:00,
2013-01-12 11:02:00,44.3,36.2,30.20,SSE,158,2.0,6.5,73,0.00,,,0.01,WUHU216HW,2013-01-12 19:02:00,
2013-01-12 11:07:00,44.6,36.8,30.20,SSE,158,2.5,6.7,74,0.00,,,0.01,WUHU216HW,2013-01-12 19:07:00,
2013-01-12 11:12:00,44.8,36.6,30.20,South,180,3.4,6.7,73,0.00,,,0.01,WUHU216HW,2013-01-12 19:12:00,
2013-01-12 11:17:00,45.0,36.6,30.19,SE,135,5.8,5.8,72,0.00,,,0.01,WUHU216HW,2013-01-12 19:17:00,
2013-01-12 11:22:00,45.2,37.0,30.19,East,90,5.8,6.0,73,0.00,,,0.01,WUHU216HW,2013-01-12 19:22:00,
2013-01-12 11:27:00,45.5,37.1,30.18,SE,135,6.9,6.9,72,0.00,,,0.01,WUHU216HW,2013-01-12 19:27:00,
2013-01-12 11:32:00,45.7,36.9,30.18,South,180,3.4,7.8,71,0.00,,,0.01,WUHU216HW,2013-01-12 19:32:00,
2013-01-12 11:37:00,45.7,37.3,30.17,SSE,158,6.5,7.8,72,0.00,,,0.01,WUHU216HW,2013-01-12 19:37:00,
2013-01-12 11:42:00,46.1,36.9,30.17,South,180,4.7,7.2,70,0.00,,,0.01,WUHU216HW,2013-01-12 19:42:00,
2013-01-12 11:47:00,46.3,37.1,30.17,ESE,113,7.6,7.6,70,0.00,,,0.01,WUHU216HW,2013-01-12 19:47:00,
2013-01-12 11:52:00,46.4,36.9,30.17,SSE,158,4.0,7.6,69,0.00,,,0.01,WUHU216HW,2013-01-12 19:52:00,
2013-01-12 11:57:00,46.4,36.9,30.16,SSE,158,4.7,7.6,69,0.00,,,0.01,WUHU216HW,2013-01-12 19:57:00,
2013-01-12 12:02:00,46.6,37.0,30.16,SSE,158,3.1,7.2,69,0.00,,,0.01,WUHU216HW,2013-01-12 20:02:00,
2013-01-12 12:07:00,47.0,37.0,30.16,SSE,158,5.6,7.2,68,0.00,,,0.01,WUHU216HW,2013-01-12 20:07:00,
2013-01-12 12:12:00,47.0,37.0,30.16,SSE,158,3.4,5.6,68,0.00,,,0.01,WUHU216HW,2013-01-12 20:12:00,
2013-01-12 12:17:00,47.2,37.2,30.15,South,180,6.7,6.7,68,0.00,,,0.01,WUHU216HW,2013-01-12 20:17:00,
2013-01-12 12:22:00,47.3,36.9,30.15,SSE,158,3.6,6.7,67,0.00,,,0.01,WUHU216HW,2013-01-12 20:22:00,
2013-01-12 12:27:00,47.5,36.7,30.15,SW,225,3.4,5.6,66,0.00,,,0.01,WUHU216HW,2013-01-12 20:27:00,
2013-01-12 12:32:00,47.7,36.5,30.15,SSE,158,4.5,5.6,65,0.00,,,0.01,WUHU216HW,2013-01-12 20:32:00,
2013-01-12 12:37:00,47.7,36.1,30.15,SSE,158,2.9,5.4,64,0.00,,,0.01,WUHU216HW,2013-01-12 20:37:00,
2013-01-12 12:42:00,47.9,36.3,30.15,SSW,203,6.3,7.6,64,0.00,,,0.01,WUHU216HW,2013-01-12 20:42:00,
2013-01-12 12:47:00,48.1,36.1,30.15,South,180,2.7,7.6,63,0.00,,,0.01,WUHU216HW,2013-01-12 20:47:00,
2013-01-12 12:52:00,48.2,35.8,30.15,SSE,158,2.0,6.3,62,0.00,,,0.01,WUHU216HW,2013-01-12 20:52:00,
2013-01-12 12:57:00,48.2,35.8,30.14,SSE,158,4.3,7.4,62,0.00,,,0.01,WUHU216HW,2013-01-12 20:57:00,
2013-01-12 13:02:00,48.4,36.0,30.15,SSW,203,4.3,7.4,62,0.00,,,0.01,WUHU216HW,2013-01-12 21:02:00,
2013-01-12 13:07:00,48.6,35.8,30.15,SSW,203,3.1,6.3,61,0.00,,,0.01,WUHU216HW,2013-01-12 21:07:00,
2013-01-12 13:12:00,48.4,35.3,30.15,SSW,203,5.6,5.6,60,0.00,,,0.01,WUHU216HW,2013-01-12 21:12:00,
2013-01-12 13:17:00,48.4,35.6,30.14,South,180,1.1,5.6,61,0.00,,,0.01,WUHU216HW,2013-01-12 21:17:00,
2013-01-12 13:22:00,48.2,35.5,30.14,South,180,0.4,5.6,61,0.00,,,0.01,WUHU216HW,2013-01-12 21:22:00,
2013-01-12 13:27:00,48.2,35.5,30.14,South,180,4.0,4.0,61,0.00,,,0.01,WUHU216HW,2013-01-12 21:27:00,
2013-01-12 13:32:00,48.4,35.6,30.14,SW,225,2.5,4.0,61,0.00,,,0.01,WUHU216HW,2013-01-12 21:32:00,
2013-01-12 13:37:00,48.4,35.6,30.14,SSW,203,2.9,5.4,61,0.00,,,0.01,WUHU216HW,2013-01-12 21:37:00,
2013-01-12 13:42:00,48.6,35.5,30.14,SW,225,1.1,6.0,60,0.00,,,0.01,WUHU216HW,2013-01-12 21:42:00,
2013-01-12 13:47:00,48.6,34.5,30.14,South,180,2.5,6.0,58,0.00,,,0.01,WUHU216HW,2013-01-12 21:47:00,
2013-01-12 13:52:00,49.0,35.3,30.14,West,270,3.8,4.7,59,0.00,,,0.01,WUHU216HW,2013-01-12 21:52:00,
2013-01-12 13:57:00,49.1,35.5,30.14,South,180,6.3,6.3,59,0.00,,,0.01,WUHU216HW,2013-01-12 21:57:00,
2013-01-12 14:03:00,49.5,35.3,30.14,SE,135,2.5,6.3,58,0.00,,,0.01,WUHU216HW,2013-01-12 22:03:00,
2013-01-12 14:08:00,49.7,35.0,30.14,SW,225,1.8,6.3,57,0.00,,,0.01,WUHU216HW,2013-01-12 22:08:00,
2013-01-12 14:13:00,49.5,35.3,30.14,South,180,5.4,5.4,58,0.00,,,0.01,WUHU216HW,2013-01-12 22:13:00,
2013-01-12 14:18:00,49.7,35.5,30.14,SSW,203,4.3,5.4,58,0.00,,,0.01,WUHU216HW,2013-01-12 22:18:00,
2013-01-12 14:23:00,49.7,35.5,30.14,SE,135,2.5,5.4,58,0.00,,,0.01,WUHU216HW,2013-01-12 22:23:00,
2013-01-12 14:28:00,49.3,33.8,30.14,ESE,113,1.1,5.4,55,0.00,,,0.01,WUHU216HW,2013-01-12 22:28:00,
2013-01-12 14:33:00,49.0,32.5,30.14,WSW,248,0.2,2.5,53,0.00,,,0.01,WUHU216HW,2013-01-12 22:33:00,
2013-01-12 14:38:00,48.8,33.8,30.14,NNE,23,0.0,4.5,56,0.00,,,0.01,WUHU216HW,2013-01-12 22:38:00,
2013-01-12 14:43:00,48.8,33.8,30.14,South,180,1.8,4.5,56,0.00,,,0.01,WUHU216HW,2013-01-12 22:43:00,
2013-01-12 14:48:00,48.6,34.0,30.14,SW,225,0.0,1.8,57,0.00,,,0.01,WUHU216HW,2013-01-12 22:48:00,
2013-01-12 14:53:00,48.6,34.0,30.14,SSW,203,1.8,3.1,57,0.00,,,0.01,WUHU216HW,2013-01-12 22:53:00,
2013-01-12 14:58:00,48.6,34.0,30.14,SW,225,1.6,3.8,57,0.00,,,0.01,WUHU216HW,2013-01-12 22:58:00,
2013-01-12 15:03:00,49.0,34.4,30.14,SSW,203,1.1,3.8,57,0.00,,,0.01,WUHU216HW,2013-01-12 23:03:00,
2013-01-12 15:08:00,49.0,34.4,30.14,NNW,338,2.5,3.4,57,0.00,,,0.01,WUHU216HW,2013-01-12 23:08:00,
2013-01-12 15:13:00,49.0,34.4,30.14,West,270,2.5,3.6,57,0.00,,,0.01,WUHU216HW,2013-01-12 23:13:00,
2013-01-12 15:18:00,49.0,34.8,30.14,WNW,293,0.9,3.6,58,0.00,,,0.01,WUHU216HW,2013-01-12 23:18:00,
2013-01-12 15:23:00,48.8,34.7,30.14,WNW,293,2.9,3.1,58,0.00,,,0.01,WUHU216HW,2013-01-12 23:23:00,
2013-01-12 15:28:00,48.6,34.9,30.13,WNW,293,0.9,3.4,59,0.00,,,0.01,WUHU216HW,2013-01-12 23:28:00,
2013-01-12 15:33:00,48.1,34.9,30.13,NW,315,1.1,3.4,60,0.00,,,0.01,WUHU216HW,2013-01-12 23:33:00,
2013-01-12 15:38:00,47.9,34.3,30.13,North,0,0.0,2.5,59,0.00,,,0.01,WUHU216HW,2013-01-12 23:38:00,
2013-01-12 15:43:00,47.5,34.4,30.13,WNW,293,0.0,1.6,60,0.00,,,0.01,WUHU216HW,2013-01-12 23:43:00,
2013-01-12 15:48:00,47.2,34.4,30.13,WNW,293,0.7,0.9,61,0.00,,,0.01,WUHU216HW,2013-01-12 23:48:00,
2013-01-12 15:53:00,47.0,33.8,30.13,NW,315,0.7,0.9,60,0.00,,,0.01,WUHU216HW,2013-01-12 23:53:00,
2013-01-12 15:58:00,46.6,33.8,30.12,NW,315,0.4,1.1,61,0.00,,,0.01,WUHU216HW,2013-01-12 23:58:00,
2013-01-12 16:03:00,46.1,33.8,30.12,NW,315,1.1,1.6,62,0.00,,,0.01,WUHU216HW,2013-01-13 00:03:00,
2013-01-12 16:08:00,45.7,33.9,30.12,NW,315,0.2,1.8,63,0.00,,,0.01,WUHU216HW,2013-01-13 00:08:00,
2013-01-12 16:13:00,45.4,33.5,30.12,NW,315,0.0,1.8,63,0.00,,,0.01,WUHU216HW,2013-01-13 00:13:00,
2013-01-12 16:18:00,45.2,33.3,30.12,NW,315,0.0,0.4,63,0.00,,,0.01,WUHU216HW,2013-01-13 00:18:00,
2013-01-12 16:23:00,45.0,33.1,30.12,NW,315,0.4,0.4,63,0.00,,,0.01,WUHU216HW,2013-01-13 00:23:00,
2013-01-12 16:28:00,44.8,32.9,30.12,NW,315,0.0,0.4,63,0.00,,,0.01,WUHU216HW,2013-01-13 00:28:00,
2013-01-12 16:33:00,44.6,32.9,30.12,NNW,338,0.0,0.4,63,0.00,,,0.01,WUHU216HW,2013-01-13 00:33:00,
2013-01-12 16:38:00,44.5,33.0,30.12,NNW,338,0.0,0.4,64,0.00,,,0.01,WUHU216HW,2013-01-13 00:38:00,
2013-01-12 16:43:00,44.5,33.0,30.12,NNW,338,0.4,0.4,64,0.00,,,0.01,WUHU216HW,2013-01-13 00:43:00,
2013-01-12 16:48:00,44.3,32.9,30.12,NW,315,0.0,0.4,64,0.00,,,0.01,WUHU216HW,2013-01-13 00:48:00,
2013-01-12 16:53:00,44.1,32.7,30.12,NNW,338,0.0,0.4,64,0.00,,,0.01,WUHU216HW,2013-01-13 00:53:00,
2013-01-12 16:58:00,43.7,32.8,30.12,NNW,338,0.0,0.0,65,0.00,,,0.01,WUHU216HW,2013-01-13 00:58:00,
2013-01-12 17:03:00,43.6,32.6,30.12,NNW,338,0.0,0.0,65,0.00,,,0.01,WUHU216HW,2013-01-13 01:03:00,
2013-01-12 17:08:00,43.4,32.4,30.12,NNW,338,0.0,0.0,65,0.00,,,0.01,WUHU216HW,2013-01-13 01:08:00,
2013-01-12 17:13:00,43.0,32.4,30.12,NE,45,0.0,0.0,66,0.00,,,0.01,WUHU216HW,2013-01-13 01:13:00,
2013-01-12 17:18:00,42.5,32.3,30.12,NE,45,0.4,1.1,67,0.00,,,0.01,WUHU216HW,2013-01-13 01:18:00,
2013-01-12 17:23:00,42.1,32.0,30.12,NE,45,0.0,1.1,67,0.00,,,0.01,WUHU216HW,2013-01-13 01:23:00,
2013-01-12 17:28:00,41.8,31.6,30.12,NE,45,0.0,0.4,67,0.00,,,0.01,WUHU216HW,2013-01-13 01:28:00,
2013-01-12 17:33:00,41.4,31.7,30.13,North,0,1.1,1.6,68,0.00,,,0.01,WUHU216HW,2013-01-13 01:33:00,
2013-01-12 17:38:00,41.0,31.3,30.13,North,0,0.0,1.6,68,0.00,,,0.01,WUHU216HW,2013-01-13 01:38:00,
2013-01-12 17:43:00,40.9,31.5,30.13,NNE,23,0.0,1.1,69,0.00,,,0.01,WUHU216HW,2013-01-13 01:43:00,
2013-01-12 17:48:00,40.3,31.0,30.12,NNE,23,0.7,1.1,69,0.00,,,0.01,WUHU216HW,2013-01-13 01:48:00,
2013-01-12 17:53:00,40.0,31.3,30.12,North,0,0.4,1.1,71,0.00,,,0.01,WUHU216HW,2013-01-13 01:53:00,
2013-01-12 17:58:00,39.6,31.0,30.13,NNE,23,0.7,1.1,71,0.00,,,0.01,WUHU216HW,2013-01-13 01:58:00,
2013-01-12 18:03:00,39.4,31.2,30.12,NNE,23,0.7,1.1,72,0.00,,,0.01,WUHU216HW,2013-01-13 02:03:00,
2013-01-12 18:08:00,39.2,31.0,30.12,NNE,23,0.0,0.9,72,0.00,,,0.01,WUHU216HW,2013-01-13 02:08:00,
2013-01-12 18:13:00,39.2,31.0,30.13,NNE,23,0.0,0.9,72,0.00,,,0.01,WUHU216HW,2013-01-13 02:13:00,
2013-01-12 18:18:00,38.9,30.6,30.13,NNE,23,0.0,0.0,72,0.00,,,0.01,WUHU216HW,2013-01-13 02:18:00,
2013-01-12 18:23:00,38.5,30.2,30.13,NNE,23,0.0,0.0,72,0.00,,,0.01,WUHU216HW,2013-01-13 02:23:00,
2013-01-12 18:28:00,38.3,30.1,30.13,North,0,0.0,0.0,72,0.00,,,0.01,WUHU216HW,2013-01-13 02:28:00,
2013-01-12 18:33:00,38.0,30.1,30.13,North,0,0.2,0.7,73,0.00,,,0.01,WUHU216HW,2013-01-13 02:33:00,
2013-01-12 18:38:00,37.6,30.4,30.13,North,0,0.4,0.7,75,0.00,,,0.01,WUHU216HW,2013-01-13 02:38:00,
2013-01-12 18:43:00,37.4,30.6,30.13,North,0,0.4,0.9,76,0.00,,,0.01,WUHU216HW,2013-01-13 02:43:00,
2013-01-12 18:48:00,37.3,30.4,30.13,NNW,338,0.0,0.9,76,0.00,,,0.01,WUHU216HW,2013-01-13 02:48:00,
2013-01-12 18:53:00,37.3,30.4,30.13,North,0,0.0,0.4,76,0.00,,,0.01,WUHU216HW,2013-01-13 02:53:00,
2013-01-12 18:58:00,37.1,30.3,30.13,WNW,293,0.7,1.1,76,0.00,,,0.01,WUHU216HW,2013-01-13 02:58:00,
2013-01-12 19:03:00,37.1,30.3,30.13,NNW,338,0.9,1.1,76,0.00,,,0.01,WUHU216HW,2013-01-13 03:03:00,
2013-01-12 19:08:00,36.9,30.1,30.13,NNW,338,0.0,1.1,76,0.00,,,0.01,WUHU216HW,2013-01-13 03:08:00,
2013-01-12 19:13:00,36.5,30.0,30.13,North,0,0.4,0.9,77,0.00,,,0.01,WUHU216HW,2013-01-13 03:13:00,
2013-01-12 19:18:00,36.4,30.2,30.12,WSW,248,0.0,1.1,78,0.00,,,0.01,WUHU216HW,2013-01-13 03:18:00,
2013-01-12 19:23:00,36.4,30.2,30.13,West,270,0.4,1.8,78,0.00,,,0.01,WUHU216HW,2013-01-13 03:23:00,
2013-01-12 19:28:00,36.2,30.0,30.13,North,0,0.0,1.8,78,0.00,,,0.01,WUHU216HW,2013-01-13 03:28:00,
2013-01-12 19:33:00,36.4,30.2,30.12,North,0,0.4,1.3,78,0.00,,,0.01,WUHU216HW,2013-01-13 03:33:00,
2013-01-12 19:38:00,36.7,30.5,30.12,North,0,0.0,1.3,78,0.00,,,0.01,WUHU216HW,2013-01-13 03:38:00,
2013-01-12 19:43:00,37.1,30.9,30.13,NW,315,0.7,0.7,78,0.00,,,0.01,WUHU216HW,2013-01-13 03:43:00,
2013-01-12 19:48:00,37.3,31.1,30.12,NW,315,1.1,1.3,78,0.00,,,0.01,WUHU216HW,2013-01-13 03:48:00,
2013-01-12 19:53:00,37.3,31.1,30.12,NW,315,0.4,1.3,78,0.00,,,0.01,WUHU216HW,2013-01-13 03:53:00,
2013-01-12 19:58:00,37.3,31.3,30.12,NW,315,1.1,1.1,79,0.00,,,0.01,WUHU216HW,2013-01-13 03:58:00,
2013-01-12 20:03:00,37.3,31.3,30.13,NNW,338,0.4,1.6,79,0.00,,,0.01,WUHU216HW,2013-01-13 04:03:00,
2013-01-12 20:08:00,37.3,31.7,30.13,NW,315,0.0,1.6,80,0.00,,,0.01,WUHU216HW,2013-01-13 04:08:00,
2013-01-12 20:13:00,37.3,31.7,30.13,NNW,338,0.0,0.4,80,0.00,,,0.01,WUHU216HW,2013-01-13 04:13:00,
2013-01-12 20:18:00,37.3,31.7,30.13,North,0,0.0,0.0,80,0.00,,,0.01,WUHU216HW,2013-01-13 04:18:00,
2013-01-12 20:23:00,37.1,31.5,30.13,ENE,68,0.0,0.7,80,0.00,,,0.01,WUHU216HW,2013-01-13 04:23:00,
2013-01-12 20:28:00,36.9,31.3,30.13,ENE,68,0.9,1.3,80,0.00,,,0.01,WUHU216HW,2013-01-13 04:28:00,
2013-01-12 20:33:00,36.5,31.0,30.13,NNE,23,0.0,1.3,80,0.00,,,0.01,WUHU216HW,2013-01-13 04:33:00,
2013-01-12 20:38:00,36.5,31.0,30.13,NE,45,0.0,0.9,80,0.00,,,0.01,WUHU216HW,2013-01-13 04:38:00,
2013-01-12 20:43:00,36.4,30.8,30.13,NE,45,0.4,0.9,80,0.00,,,0.01,WUHU216HW,2013-01-13 04:43:00,
2013-01-12 20:48:00,36.2,30.9,30.13,NE,45,0.4,0.9,81,0.00,,,0.01,WUHU216HW,2013-01-13 04:48:00,
2013-01-12 20:53:00,35.8,30.5,30.13,ENE,68,0.0,0.9,81,0.00,,,0.01,WUHU216HW,2013-01-13 04:53:00,
2013-01-12 20:58:00,35.6,30.3,30.13,NE,45,0.4,0.9,81,0.00,,,0.01,WUHU216HW,2013-01-13 04:58:00,
2013-01-12 21:03:00,35.5,30.2,30.12,NNE,23,0.7,0.7,81,0.00,,,0.01,WUHU216HW,2013-01-13 05:03:00,
2013-01-12 21:08:00,35.6,30.3,30.13,NNE,23,0.9,0.9,81,0.00,,,0.01,WUHU216HW,2013-01-13 05:08:00,
2013-01-12 21:13:00,35.6,30.3,30.12,North,0,0.4,0.9,81,0.00,,,0.01,WUHU216HW,2013-01-13 05:13:00,
2013-01-12 21:18:00,35.5,29.9,30.12,North,0,0.4,0.9,80,0.00,,,0.01,WUHU216HW,2013-01-13 05:18:00,
2013-01-12 21:23:00,35.3,30.0,30.13,North,0,0.0,0.4,81,0.00,,,0.01,WUHU216HW,2013-01-13 05:23:00,
2013-01-12 21:28:00,35.1,29.8,30.13,North,0,0.0,0.4,81,0.00,,,0.01,WUHU216HW,2013-01-13 05:28:00,
2013-01-12 21:33:00,35.1,29.5,30.13,North,0,0.0,0.0,80,0.00,,,0.01,WUHU216HW,2013-01-13 05:33:00,
2013-01-12 21:38:00,34.9,29.3,30.13,North,0,0.0,0.0,80,0.00,,,0.01,WUHU216HW,2013-01-13 05:38:00,
2013-01-12 21:43:00,34.6,29.3,30.13,North,0,0.0,0.0,81,0.00,,,0.01,WUHU216HW,2013-01-13 05:43:00,
2013-01-12 21:48:00,34.2,29.2,30.13,North,0,0.0,0.0,82,0.00,,,0.01,WUHU216HW,2013-01-13 05:48:00,
2013-01-12 21:53:00,34.0,29.0,30.13,North,0,0.0,0.0,82,0.00,,,0.01,WUHU216HW,2013-01-13 05:53:00,
2013-01-12 21:58:00,33.8,29.2,30.13,North,0,0.7,0.9,83,0.00,,,0.01,WUHU216HW,2013-01-13 05:58:00,
2013-01-12 22:03:00,33.8,29.2,30.13,North,0,1.1,1.1,83,0.00,,,0.01,WUHU216HW,2013-01-13 06:03:00,
2013-01-12 22:08:00,33.8,29.2,30.14,North,0,0.7,1.1,83,0.00,,,0.01,WUHU216HW,2013-01-13 06:08:00,
2013-01-12 22:13:00,33.8,29.2,30.13,North,0,0.4,1.1,83,0.00,,,0.01,WUHU216HW,2013-01-13 06:13:00,
2013-01-12 22:18:00,33.7,29.0,30.14,North,0,1.3,1.3,83,0.00,,,0.01,WUHU216HW,2013-01-13 06:18:00,
2013-01-12 22:23:00,33.7,29.0,30.14,NNE,23,1.1,1.8,83,0.00,,,0.01,WUHU216HW,2013-01-13 06:23:00,
2013-01-12 22:28:00,33.7,29.0,30.14,North,0,1.6,1.8,83,0.00,,,0.01,WUHU216HW,2013-01-13 06:28:00,
2013-01-12 22:33:00,33.5,28.8,30.14,North,0,0.0,1.8,83,0.00,,,0.01,WUHU216HW,2013-01-13 06:33:00,
2013-01-12 22:38:00,33.3,28.6,30.14,North,0,0.0,1.6,83,0.00,,,0.01,WUHU216HW,2013-01-13 06:38:00,
2013-01-12 22:43:00,33.3,28.6,30.14,NNW,338,0.0,0.4,83,0.00,,,0.01,WUHU216HW,2013-01-13 06:43:00,
2013-01-12 22:48:00,33.1,28.4,30.14,WNW,293,0.0,0.4,83,0.00,,,0.01,WUHU216HW,2013-01-13 06:48:00,
2013-01-12 22:53:00,33.1,28.4,30.14,WNW,293,0.0,0.0,83,0.00,,,0.01,WUHU216HW,2013-01-13 06:53:00,
2013-01-12 22:58:00,32.9,28.4,30.15,NW,315,0.0,0.0,83,0.00,,,0.01,WUHU216HW,2013-01-13 06:58:00,
2013-01-12 23:03:00,32.9,28.4,30.15,NW,315,0.0,0.0,83,0.00,,,0.01,WUHU216HW,2013-01-13 07:03:00,
2013-01-12 23:08:00,32.8,28.2,30.15,NNW,338,0.0,0.0,83,0.00,,,0.01,WUHU216HW,2013-01-13 07:08:00,
2013-01-12 23:13:00,32.8,28.2,30.15,NNW,338,0.0,0.0,83,0.00,,,0.01,WUHU216HW,2013-01-13 07:13:00,
2013-01-12 23:18:00,32.9,28.4,30.15,NNW,338,0.0,0.0,83,0.00,,,0.01,WUHU216HW,2013-01-13 07:18:00,
2013-01-12 23:23:00,32.9,28.4,30.15,NNW,338,0.0,0.0,83,0.00,,,0.01,WUHU216HW,2013-01-13 07:23:00,
2013-01-12 23:28:00,32.8,28.2,30.15,WSW,248,0.0,0.0,83,0.00,,,0.01,WUHU216HW,2013-01-13 07:28:00,
2013-01-12 23:33:00,32.6,27.7,30.15,WSW,248,0.0,0.0,82,0.00,,,0.01,WUHU216HW,2013-01-13 07:33:00,
2013-01-12 23:38:00,32.4,27.5,30.15,West,270,0.0,0.0,82,0.00,,,0.01,WUHU216HW,2013-01-13 07:38:00,
2013-01-12 23:43:00,32.4,27.8,30.15,North,0,0.0,0.0,83,0.00,,,0.01,WUHU216HW,2013-01-13 07:43:00,
2013-01-12 23:48:00,32.4,27.8,30.15,North,0,0.0,0.0,83,0.00,,,0.01,WUHU216HW,2013-01-13 07:48:00,
2013-01-12 23:53:00,32.0,27.2,30.15,East,90,0.0,0.0,82,0.00,,,0.01,WUHU216HW,2013-01-13 07:53:00,
2013-01-12 23:58:00,31.9,27.0,30.15,North,0,0.0,0.0,82,0.00,,,0.01,WUHU216HW,2013-01-13 07:58:00,